Weather History for Weslaco, TX

Change the Weather History Date:

Saturday, January 7, 2012

  Actual Average (KMFE) Record (KMFE)
Temperature  
Mean Temperature 68 °F 60 °F  
Max Temperature 80 °F 70 °F 89 °F (2008)
Min Temperature 55 °F 50 °F 28 °F (1907)
Degree Days  
Heating Degree Days 0 7  
Month to date heating degree days 49  
Since 1 July heating degree days 286  
Cooling Degree Days 2 2  
Month to date cooling degree days 14  
Year to date cooling degree days 14  
Growing Degree Days 18 (Base 50)    
Moisture  
Dew Point 57 °F    
Average Humidity 75    
Maximum Humidity 100    
Minimum Humidity 42    
Precipitation  
Precipitation 0.00 in 0.03 in 0.53 in (1986)
Month to date precipitation 0.22  
Year to date precipitation 0.22  
Sea Level Pressure  
Sea Level Pressure 29.97 in    
Wind  
Wind Speed 7 mph (South)    
Max Wind Speed 10 mph    
Max Gust Speed -    
Visibility 10 miles    
Events      
T = Trace of Precipitation, MM = Missing Value Source: NWS Daily Summary

Daily Weather History Graph

Daily Weather History Graph

Search for Another Location

Airport:

Trip Planner

Search our weather history database for the weather conditions in past years. The results will help you decide how hot, cold, wet, or windy it might be!

Date:

Astronomy

Jan. 07, 2012 Rise Set
Actual Time 7:20 AM CST 5:55 PM CST
Civil Twilight 6:55 AM CST 6:20 PM CST
Nautical Twilight 6:26 AM CST 6:49 PM CST
Astronomical Twilight 5:58 AM CST 7:17 PM CST
Moon 4:42 PM CST (1/7) 5:51 AM CST (1/7)
Length of Visible Light 11h 25m
Length of Day
10h 34m
Waxing Gibbous, 97% of the Moon is Illuminated
Jan 7
Waxing Gibbous
Jan 9
Full
Jan 16
Last Quarter
Jan 23
New
Jan 30
First Quarter

Hourly Weather History & Observations

Time (CST) Temp. Heat Index Dew Point Humidity Pressure Visibility Wind Dir Wind Speed Gust Speed Precip Events Conditions
12:15 AM 60.8 °F - 59.0 °F 94% 29.96 in 10.0 mi South 6.9 mph - N/A   Clear
12:35 AM 60.8 °F - 59.0 °F 94% 29.96 in 10.0 mi South 9.2 mph - N/A   Clear
12:55 AM 60.8 °F - 59.0 °F 94% 29.96 in 10.0 mi South 8.1 mph - N/A   Clear
1:15 AM 60.8 °F - 59.0 °F 94% 29.95 in 10.0 mi South 8.1 mph - N/A   Clear
1:35 AM 60.8 °F - 57.2 °F 88% 29.95 in 10.0 mi South 6.9 mph - N/A   Clear
1:55 AM 59.0 °F - 57.2 °F 94% 29.94 in 10.0 mi South 6.9 mph - N/A   Clear
2:15 AM 59.0 °F - 57.2 °F 94% 29.94 in 10.0 mi South 6.9 mph - N/A   Clear
2:35 AM 59.0 °F - 57.2 °F 94% 29.94 in 10.0 mi South 5.8 mph - N/A   Clear
2:55 AM 59.0 °F - 55.4 °F 88% 29.93 in 10.0 mi South 5.8 mph - N/A   Clear
3:15 AM 59.0 °F - 55.4 °F 88% 29.93 in 10.0 mi South 6.9 mph - N/A   Clear
3:35 AM 59.0 °F - 55.4 °F 88% 29.93 in 10.0 mi South 5.8 mph - N/A   Clear
3:55 AM 59.0 °F - 55.4 °F 88% 29.94 in 10.0 mi South 5.8 mph - N/A   Clear
4:15 AM 59.0 °F - 55.4 °F 88% 29.94 in 10.0 mi South 5.8 mph - N/A   Clear
4:35 AM 59.0 °F - 55.4 °F 88% 29.93 in 10.0 mi South 5.8 mph - N/A   Clear
4:55 AM 59.0 °F - 55.4 °F 88% 29.94 in 10.0 mi SSW 5.8 mph - N/A   Clear
5:15 AM 57.2 °F - 55.4 °F 94% 29.94 in 10.0 mi South 5.8 mph - N/A   Clear
5:35 AM 57.2 °F - 55.4 °F 94% 29.94 in 10.0 mi South 4.6 mph - N/A   Clear
5:55 AM 57.2 °F - 55.4 °F 94% 29.95 in 10.0 mi South 4.6 mph - N/A   Clear
6:15 AM 55.4 °F - 53.6 °F 94% 29.96 in 7.0 mi South 3.5 mph - N/A   Clear
6:35 AM 55.4 °F - 53.6 °F 94% 29.96 in 7.0 mi South 3.5 mph - N/A   Clear
7:15 AM 55.4 °F - 55.4 °F 100% 29.96 in 5.0 mi South 4.6 mph - N/A   Clear
7:35 AM 55.4 °F - 55.4 °F 100% 29.97 in 5.0 mi SSE 5.8 mph - N/A   Clear
7:55 AM 57.2 °F - 55.4 °F 94% 29.98 in 4.0 mi South 4.6 mph - N/A   Clear
8:15 AM 59.0 °F - 57.2 °F 94% 29.99 in 5.0 mi South 3.5 mph - N/A   Clear
8:35 AM 60.8 °F - 57.2 °F 88% 30.00 in 7.0 mi South 4.6 mph - N/A   Clear
8:55 AM 62.6 °F - 59.0 °F 88% 30.01 in 10.0 mi SSW 5.8 mph - N/A   Clear
9:15 AM 62.6 °F - 59.0 °F 88% 30.02 in 10.0 mi SSW 5.8 mph - N/A   Clear
9:35 AM 64.4 °F - 59.0 °F 83% 30.02 in 10.0 mi SSW 8.1 mph - N/A   Clear
9:55 AM 64.4 °F - 59.0 °F 83% 30.03 in 10.0 mi SSW 8.1 mph - N/A   Clear
10:15 AM 68.0 °F - 59.0 °F 73% 30.04 in 10.0 mi South 6.9 mph - N/A   Clear
10:35 AM 68.0 °F - 59.0 °F 73% 30.03 in 10.0 mi South 8.1 mph - N/A   Clear
10:55 AM 69.8 °F - 59.0 °F 68% 30.03 in 10.0 mi South 9.2 mph - N/A   Clear
11:15 AM 71.6 °F - 59.0 °F 64% 30.02 in 10.0 mi South 8.1 mph - N/A   Clear
11:35 AM 73.4 °F - 59.0 °F 61% 30.01 in 10.0 mi South 8.1 mph - N/A   Clear
11:55 AM 73.4 °F - 59.0 °F 61% 30.01 in 10.0 mi South 5.8 mph - N/A   Clear
12:15 PM 75.2 °F - 59.0 °F 57% 30.00 in 10.0 mi SW 5.8 mph - N/A   Clear
12:35 PM 77.0 °F - 57.2 °F 50% 29.99 in 10.0 mi WSW 6.9 mph - N/A   Clear
12:55 PM 77.0 °F - 57.2 °F 50% 29.98 in 10.0 mi SW 6.9 mph - N/A   Clear
1:15 PM 78.8 °F - 57.2 °F 47% 29.96 in 10.0 mi SW 8.1 mph - N/A   Clear
1:35 PM 78.8 °F - 57.2 °F 47% 29.96 in 10.0 mi South 5.8 mph - N/A   Clear
1:55 PM 78.8 °F - 55.4 °F 44% 29.95 in 10.0 mi WSW 4.6 mph - N/A   Clear
2:35 PM 80.6 °F 80.5 °F 55.4 °F 42% 29.94 in 10.0 mi SW 6.9 mph - N/A   Clear
2:55 PM 78.8 °F - 55.4 °F 44% 29.94 in 10.0 mi South 6.9 mph - N/A   Clear
3:15 PM 77.0 °F - 55.4 °F 47% 29.94 in 10.0 mi South 8.1 mph - N/A   Clear
3:35 PM 78.8 °F - 55.4 °F 44% 29.94 in 10.0 mi South 5.8 mph - N/A   Clear
3:55 PM 80.6 °F 80.5 °F 55.4 °F 42% 29.94 in 10.0 mi SSW 8.1 mph - N/A   Clear
4:15 PM 80.6 °F 80.5 °F 55.4 °F 42% 29.93 in 10.0 mi South 5.8 mph - N/A   Clear
4:35 PM 80.6 °F 80.5 °F 55.4 °F 42% 29.94 in 10.0 mi SSW 5.8 mph - N/A   Clear
5:35 PM 77.0 °F - 59.0 °F 54% 29.94 in 10.0 mi South 9.2 mph - N/A   Clear
6:15 PM 71.6 °F - 60.8 °F 69% 29.95 in 10.0 mi SE 6.9 mph - N/A   Clear
6:35 PM 71.6 °F - 60.8 °F 69% 29.96 in 10.0 mi SSE 9.2 mph - N/A   Clear
6:55 PM 69.8 °F - 60.8 °F 73% 29.96 in 10.0 mi SSE 10.4 mph - N/A   Clear
7:15 PM 69.8 °F - 60.8 °F 73% 29.97 in 10.0 mi SSE 9.2 mph - N/A   Clear
7:35 PM 68.0 °F - 60.8 °F 78% 29.98 in 10.0 mi SSE 9.2 mph - N/A   Clear
7:55 PM 68.0 °F - 60.8 °F 78% 29.98 in 10.0 mi SSE 10.4 mph - N/A   Clear
8:35 PM 68.0 °F - 62.6 °F 83% 29.98 in 10.0 mi South 9.2 mph - N/A   Clear
8:55 PM 66.2 °F - 62.6 °F 88% 29.98 in 10.0 mi South 6.9 mph - N/A   Clear
9:15 PM 66.2 °F - 62.6 °F 88% 29.99 in 10.0 mi SSE 6.9 mph - N/A   Clear
9:35 PM 64.4 °F - 62.6 °F 94% 29.99 in 10.0 mi SSE 8.1 mph - N/A   Clear
9:55 PM 64.4 °F - 60.8 °F 88% 29.99 in 10.0 mi South 6.9 mph - N/A   Clear
10:15 PM 64.4 °F - 60.8 °F 88% 30.00 in 10.0 mi South 6.9 mph - N/A   Clear
10:35 PM 64.4 °F - 60.8 °F 88% 29.99 in 10.0 mi SSE 5.8 mph - N/A   Clear
10:55 PM 64.4 °F - 60.8 °F 88% 29.99 in 10.0 mi South 6.9 mph - N/A   Clear
11:15 PM 62.6 °F - 60.8 °F 94% 30.00 in 10.0 mi SSE 4.6 mph - N/A   Clear
11:35 PM 62.6 °F - 60.8 °F 94% 29.99 in 7.0 mi South 6.9 mph - N/A   Clear
11:55 PM 62.6 °F - 60.8 °F 94% 29.98 in 7.0 mi SSE 5.8 mph - N/A   Clear